Location: Castelbiague
(43.0361°N, 0.9246°E)
Time: 09:04:38
(UTC+00:00)

COSMOS 2428 - Pass Details

Date: 17 June 2021
Orbit: 845 x 858 km, 70.9° (Epoch: 02 August)

Event Time Altitude Azimuth Distance (km) Brightness Sun altitude
Exits shadow 23:30:18 - 246° (WSW) 2,648 5.1 -23.3°
Reaches altitude 10° 23:30:49 10° 248° (WSW) 2,486 5.0 -23.3°
Maximum altitude 23:35:41 28° 307° (NW) 1,553 4.4 -23.4°
Drops below altitude 10° 23:40:35 10° 6° (N) 2,501 6.2 -23.4°
Sets 23:43:25 0° 18° (NNE) 3,441 7.0 -23.5°
